Location: Sungai Bunut
(2.6333°N, 113.7333°E)
Time: 20:18:33
(UTC+00:00)

Transit 4A - Visible Passes

Search period start: 06 December 2023 00:00
Search period end: 16 December 2023 00:00
Orbit: 864 x 979 km, 66.8° (Epoch: 06 December)

Date Brightness Start Highest point End Pass type
(mag) Time Alt. Az. Time Alt. Az. Time Alt. Az.
06 Dec 8.6 11:06:13 10° SSW 11:12:24 57° WNW 11:18:39 10° N visible
07 Dec 9.5 11:15:50 10° SW 11:21:29 34° WNW 11:27:11 10° N visible
08 Dec 10.3 11:26:04 10° WSW 11:30:35 20° WNW 11:35:10 10° NNW visible
08 Dec 10.3 20:51:31 10° NE 20:54:35 14° ENE 20:57:37 10° E visible
09 Dec 10.7 11:37:48 10° W 11:39:45 11° WNW 11:41:41 10° NW visible
09 Dec 9.7 20:58:57 10° NNE 21:03:42 25° ENE 21:08:23 10° SE visible
10 Dec 8.8 21:07:15 10° N 21:12:47 44° ENE 21:18:14 10° SE visible
11 Dec 7.9 21:15:59 10° NNW 21:21:49 78° ENE 21:27:36 10° SSE visible
12 Dec 7.8 21:25:19 11° NNW 21:30:51 61° WSW 21:36:33 10° S visible
13 Dec 10.0 19:51:39 14° NE 19:53:49 17° ENE 19:57:32 10° ESE visible
13 Dec 8.5 21:35:13 12° NW 21:39:53 34° WSW 21:45:05 10° S visible
14 Dec 9.2 20:01:31 27° NE 20:02:55 30° ENE 20:07:55 10° SE visible
14 Dec 9.1 21:45:05 11° WNW 21:48:55 20° WSW 21:53:01 10° SSW visible
15 Dec 8.3 20:11:20 50° NE 20:12:00 53° ENE 20:17:35 10° SE visible
15 Dec 9.6 21:56:51 10° W 21:57:59 11° WSW 21:59:07 10° WSW visible
